sat.trackr.live / text

‹ back to catalog

STARLINK-36247

NORAD 68245 · 2026-054P

PAYLOAD ACTIVE UNKNOWN

§ Identity

Operator
Country
US
Launch date
2026-03-17
Launch site
AFETR
Launch vehicle
Mass (kg)
RCS (m²)

Purposes: comms

External: N2YO · Heavens-Above · Gunter

§ Orbital elements

Epoch: 2026-05-24T15:37:25.684608Z

Period
92.94 min
Inclination
53.1572°
Eccentricity
0.0000563
Mean motion
15.49338163 rev/d
Perigee alt
418.3 km
Apogee alt
419.0 km
Semi-major
6,796.8 km
B*
6.8573e-4
RAAN
300.3713°
Arg perigee
29.8309°
Mean anomaly
330.2732°
Rev number
1,067

§ Raw data

STARLINK-362471 68245U 26054P   26144.65099172  .00037914  00000+0  68573-3 0  99932 68245  53.1572 300.3713 0000563  29.8309 330.2732 15.49338163 10679

JSON: /api/v1/satellites/68245 · /tle

For live sub-satellite position, see the globe view (requires WebGL).

§ Visibility from observer

Set your observer location to see the next 7 days of passes ≥ 10°. The values pass through the URL so the page stays shareable.

No JS? Fill the form by hand. The geolocation button needs JavaScript.